Language: 


Des rapports , des résumés tant et plus, au choix de chacun....


Données statistiques de la station
Quotidien Rapport Mars 9, 2017 Unités:  Anglais    Métrique   les deux
« Précédent Jour
Suivant Jour »
Quotidien Hebdomadaire Mensuel Annuel Actuel
  Haut: Bas: Moyen:
Température: 61.9 °F 42.6 °F 52.9 °F
Pt de rosée: 54 °F 39 °F 49.6 °F
Humidité: 98 % 69 % 89 %
Vitesse du vent: 17.4 mph 0 mph 6.8 mph
Rafales: 18.8 mph - -
Vent:- - WSW
Pression: 30.3 in 30 in -
Précipitation: 0.02 in    
Historical Graphs
 
 
Données statistiques pour Mars 9, 2017
Heure Température Point de rosée Pression Vent Vitesse du vent Refales Humidité Pluie (taux horaire)
00:04 51.3 °F 50.2 °F 30 in WSW 7.8 mph 10.3 mph 96 % 0 in
00:09 51.3 °F 50.2 °F 30 in WSW 9.2 mph 10.7 mph 96 % 0 in
00:14 51.3 °F 50.2 °F 30 in WSW 6.9 mph 12.5 mph 96 % 0 in
00:19 51.3 °F 50.2 °F 30 in WSW 7.6 mph 12.5 mph 96 % 0 in
00:24 51.3 °F 50.2 °F 30 in WSW 6.3 mph 12.5 mph 96 % 0 in
00:29 51.3 °F 50.2 °F 30 in WSW 8.5 mph 12.5 mph 96 % 0 in
00:34 51.3 °F 50.2 °F 30 in West 11.9 mph 11.9 mph 96 % 0 in
00:39 51.3 °F 50.2 °F 30 in WSW 8.1 mph 11.9 mph 96 % 0 in
00:44 51.3 °F 50.2 °F 30 in WSW 8.1 mph 12.3 mph 96 % 0 in
00:49 51.3 °F 50.2 °F 30 in WSW 8.1 mph 12.3 mph 96 % 0 in
00:54 51.3 °F 50.2 °F 30 in WSW 11 mph 13.2 mph 96 % 0 in
00:59 51.3 °F 50.2 °F 30 in WSW 7.4 mph 13.2 mph 96 % 0 in
01:04 51.3 °F 50.2 °F 30 in WSW 11.2 mph 13.9 mph 96 % 0 in
01:09 51.3 °F 50.2 °F 30 in WSW 10.5 mph 14.5 mph 96 % 0 in
01:14 51.3 °F 50.2 °F 30 in West 10.1 mph 14.5 mph 96 % 0 in
01:19 51.3 °F 50.2 °F 30 in West 10.7 mph 14.8 mph 96 % 0 in
01:24 51.3 °F 50.2 °F 30 in WSW 7.6 mph 15.2 mph 96 % 0 in
01:29 51.3 °F 50.2 °F 30 in WSW 8.5 mph 15.2 mph 96 % 0 in
01:34 51.3 °F 50.2 °F 30 in West 13.2 mph 13.2 mph 96 % 0 in
01:39 51.3 °F 50.2 °F 30 in WSW 10.5 mph 13.9 mph 96 % 0 in
01:44 51.3 °F 50.2 °F 30 in WSW 8.7 mph 13.9 mph 96 % 0 in
01:49 51.3 °F 50.4 °F 30 in WSW 9.8 mph 11 mph 97 % 0 in
01:54 51.3 °F 50.2 °F 30 in WSW 7.2 mph 11.2 mph 96 % 0 in
01:59 51.3 °F 50.2 °F 30 in West 7.6 mph 11.2 mph 96 % 0 in
02:04 51.3 °F 50.2 °F 30 in WSW 10.1 mph 10.5 mph 96 % 0 in
02:09 51.3 °F 50.2 °F 30 in West 10.3 mph 13.2 mph 96 % 0 in
02:14 51.3 °F 50.2 °F 30 in WSW 8.1 mph 13.2 mph 96 % 0 in
02:19 51.3 °F 50.4 °F 30 in WSW 10.1 mph 11 mph 97 % 0 in
02:24 51.1 °F 50.2 °F 30 in WSW 10.3 mph 10.3 mph 97 % 0 in
02:29 51.1 °F 50.2 °F 30 in WSW 11.9 mph 11.9 mph 97 % 0 in
02:34 51.1 °F 50.2 °F 30 in SW 10.5 mph 14.3 mph 97 % 0 in
02:39 51.1 °F 50.2 °F 30 in WSW 11 mph 14.3 mph 97 % 0 in
02:44 51.1 °F 50.2 °F 30 in WSW 10.7 mph 13.2 mph 97 % 0 in
02:49 51.3 °F 50.4 °F 30 in WSW 8.5 mph 13 mph 97 % 0 in
02:54 51.3 °F 50.4 °F 30 in WSW 8.7 mph 13 mph 97 % 0 in
02:59 51.3 °F 50.4 °F 30 in WSW 7.4 mph 12.3 mph 97 % 0 in
03:04 51.3 °F 50.4 °F 30 in WSW 9.6 mph 12.1 mph 97 % 0 in
03:09 51.3 °F 50.4 °F 30.1 in WSW 6.9 mph 10.5 mph 97 % 0 in
03:14 51.3 °F 50.4 °F 30.1 in WSW 7.4 mph 9.8 mph 97 % 0 in
03:19 51.3 °F 50.4 °F 30.1 in WSW 7.6 mph 9.8 mph 97 % 0 in
03:24 51.3 °F 50.4 °F 30 in WSW 7.8 mph 10.3 mph 97 % 0 in
03:29 51.1 °F 50.2 °F 30 in WSW 7.4 mph 10.3 mph 97 % 0 in
03:34 51.1 °F 50.2 °F 30 in WSW 7.4 mph 10.3 mph 97 % 0 in
03:39 51.1 °F 50.2 °F 30 in West 6 mph 10.1 mph 97 % 0 in
03:44 51.3 °F 50.4 °F 30 in WSW 8.7 mph 10.5 mph 97 % 0 in
03:49 51.3 °F 50.4 °F 30 in West 12.1 mph 12.5 mph 97 % 0 in
03:54 51.3 °F 50.4 °F 30 in West 10.1 mph 12.5 mph 97 % 0 in
03:59 51.3 °F 50.4 °F 30 in WSW 11 mph 13.2 mph 97 % 0 in
04:04 51.3 °F 50.4 °F 30 in West 8.5 mph 13.2 mph 97 % 0 in
04:09 51.3 °F 50.4 °F 30 in WSW 8.7 mph 12.5 mph 97 % 0 in
04:14 51.3 °F 50.4 °F 30 in WSW 6.5 mph 12.1 mph 97 % 0 in
04:19 51.3 °F 50.4 °F 30 in WSW 8.5 mph 11.2 mph 97 % 0 in
04:24 51.3 °F 50.4 °F 30.1 in WSW 6.5 mph 11.2 mph 97 % 0 in
04:29 51.3 °F 50.4 °F 30.1 in WSW 8.7 mph 12.1 mph 97 % 0.01 in
04:34 51.3 °F 50.4 °F 30.1 in West 8.5 mph 12.5 mph 97 % 0.01 in
04:39 51.3 °F 50.4 °F 30 in SW 6 mph 12.5 mph 97 % 0.01 in
04:44 51.3 °F 50.4 °F 30 in WSW 6 mph 10.7 mph 97 % 0.01 in
04:49 51.3 °F 50.4 °F 30 in WSW 8.7 mph 11.2 mph 97 % 0.01 in
04:54 51.3 °F 50.4 °F 30 in WSW 7.6 mph 11.2 mph 97 % 0.01 in
04:59 51.1 °F 50.2 °F 30 in WSW 8.5 mph 10.3 mph 97 % 0.01 in
05:04 51.1 °F 50.2 °F 30 in WSW 8.1 mph 10.5 mph 97 % 0.02 in
05:09 51.3 °F 50.4 °F 30 in SW 9.4 mph 10.5 mph 97 % 0.02 in
05:14 51.1 °F 50.2 °F 30 in WSW 7.4 mph 10.3 mph 97 % 0.02 in
05:19 51.1 °F 50.2 °F 30 in WSW 8.7 mph 10.1 mph 97 % 0.02 in
05:24 51.1 °F 50.2 °F 30 in WSW 8.1 mph 10.1 mph 97 % 0.02 in
05:29 51.1 °F 50.2 °F 30 in WSW 8.1 mph 9.8 mph 97 % 0.01 in
05:34 51.1 °F 50.2 °F 30 in West 8.5 mph 10.7 mph 97 % 0.01 in
05:39 51.1 °F 50.2 °F 30 in WSW 6.3 mph 10.7 mph 97 % 0.01 in
05:44 51.1 °F 50.2 °F 30 in WSW 7.4 mph 10.7 mph 97 % 0.01 in
05:49 51.1 °F 50.2 °F 30 in WSW 9.2 mph 12.8 mph 97 % 0.01 in
05:54 51.1 °F 50.2 °F 30 in WSW 6.3 mph 12.8 mph 97 % 0.01 in
05:59 51.1 °F 50.2 °F 30 in WSW 6 mph 10.7 mph 97 % 0.01 in
06:04 51.1 °F 50.2 °F 30 in WSW 6 mph 10.5 mph 97 % 0 in
06:09 51.1 °F 50.2 °F 30 in WSW 9.4 mph 11 mph 97 % 0 in
06:14 51.3 °F 50.4 °F 30 in WSW 11 mph 13 mph 97 % 0 in
06:19 51.3 °F 50.7 °F 30 in West 11.2 mph 13 mph 98 % 0 in
06:24 51.3 °F 50.7 °F 30 in WSW 7.8 mph 14.3 mph 98 % 0 in
06:29 51.3 °F 50.7 °F 30 in WSW 13 mph 14.8 mph 98 % 0 in
06:34 51.3 °F 50.7 °F 30 in West 11 mph 15.9 mph 98 % 0 in
06:39 51.4 °F 50.5 °F 30 in West 9.2 mph 15.9 mph 97 % 0 in
06:44 51.4 °F 50.5 °F 30 in WSW 9.8 mph 15.2 mph 97 % 0 in
06:49 51.4 °F 50.5 °F 30 in WSW 11 mph 13.6 mph 97 % 0 in
06:54 51.4 °F 50.5 °F 30 in WSW 11.2 mph 13.2 mph 97 % 0 in
06:59 51.4 °F 50.5 °F 30 in WSW 11 mph 14.8 mph 97 % 0 in
07:04 51.4 °F 50.5 °F 30 in West 15.7 mph 15.7 mph 97 % 0 in
07:09 51.4 °F 50.5 °F 30 in West 10.5 mph 15.7 mph 97 % 0 in
07:14 51.4 °F 50.5 °F 30 in West 12.3 mph 15.7 mph 97 % 0 in
07:19 51.4 °F 50.5 °F 30 in West 13.2 mph 15.2 mph 97 % 0 in
07:24 51.6 °F 50.7 °F 30 in WSW 12.3 mph 15.4 mph 97 % 0 in
07:29 51.6 °F 50.7 °F 30 in West 13.2 mph 16.3 mph 97 % 0 in
07:34 51.6 °F 50.7 °F 30 in West 10.1 mph 16.6 mph 97 % 0 in
07:39 51.6 °F 50.7 °F 30 in WSW 11 mph 18.1 mph 97 % 0 in
07:44 51.8 °F 50.9 °F 30 in West 12.8 mph 18.1 mph 97 % 0 in
07:49 51.8 °F 50.7 °F 30 in West 7.8 mph 18.8 mph 96 % 0 in
07:54 51.8 °F 50.7 °F 30 in West 9.8 mph 18.8 mph 96 % 0 in
07:59 51.8 °F 50.7 °F 30 in WSW 10.7 mph 14.8 mph 96 % 0 in
08:04 51.8 °F 50.7 °F 30 in WSW 9.8 mph 14.5 mph 96 % 0 in
08:09 52 °F 50.7 °F 30 in West 11 mph 13 mph 96 % 0 in
08:14 52 °F 50.7 °F 30 in West 5.8 mph 11.4 mph 96 % 0 in
08:19 52 °F 50.7 °F 30 in WSW 10.3 mph 13.2 mph 96 % 0 in
08:24 52 °F 50.7 °F 30 in West 12.1 mph 15.2 mph 96 % 0 in
08:29 52 °F 50.5 °F 30 in West 16.1 mph 17.2 mph 95 % 0 in
08:34 52.2 °F 50.7 °F 30 in WSW 10.1 mph 17.2 mph 95 % 0 in
08:39 52.2 °F 50.7 °F 30 in WSW 12.5 mph 16.8 mph 95 % 0 in
08:44 52.2 °F 50.7 °F 30 in WSW 9.8 mph 16.8 mph 95 % 0 in
08:49 52.2 °F 50.7 °F 30 in West 12.8 mph 16.1 mph 95 % 0 in
08:54 52.2 °F 50.7 °F 30 in West 12.5 mph 16.1 mph 95 % 0 in
08:59 52.2 °F 50.7 °F 30 in WSW 12.8 mph 15.4 mph 95 % 0 in
09:04 52.2 °F 50.7 °F 30 in West 10.5 mph 15.4 mph 95 % 0 in
09:09 52.2 °F 50.7 °F 30 in WSW 10.5 mph 15.2 mph 95 % 0 in
09:14 52.3 °F 50.9 °F 30 in WSW 14.8 mph 15.4 mph 95 % 0 in
09:19 52.3 °F 50.9 °F 30 in West 6 mph 15.4 mph 95 % 0 in
09:24 52.3 °F 50.9 °F 30.1 in West 7.6 mph 13 mph 95 % 0 in
09:29 52.5 °F 51.1 °F 30.1 in West 3.1 mph 12.1 mph 95 % 0 in
09:34 52.5 °F 51.1 °F 30.1 in NW 6.3 mph 13.2 mph 95 % 0 in
09:39 52.5 °F 51.1 °F 30.1 in NW 2 mph 13.2 mph 95 % 0 in
09:44 52.5 °F 51.1 °F 30.1 in West 4.3 mph 12.1 mph 95 % 0 in
09:49 52.5 °F 51.1 °F 30.1 in WNW 4.3 mph 13.2 mph 95 % 0 in
09:54 52.5 °F 51.3 °F 30.1 in SSW 12.8 mph 13.2 mph 95 % 0 in
10:00 52.5 °F 51.3 °F 30.1 in West 7.8 mph 12.8 mph 95 % 0 in
10:05 52.5 °F 51.3 °F 30.1 in WSW 3.1 mph 14.3 mph 95 % 0 in
10:10 52.9 °F 51.4 °F 30.1 in WSW 6.3 mph 14.3 mph 95 % 0 in
10:15 53.1 °F 51.6 °F 30.1 in West 10.3 mph 10.7 mph 95 % 0 in
10:20 53.1 °F 51.6 °F 30.1 in WSW 10.1 mph 11 mph 95 % 0 in
10:24 53.2 °F 51.8 °F 30.1 in West 6.5 mph 11 mph 95 % 0 in
10:29 53.2 °F 52 °F 30.1 in WSW 5.8 mph 11.9 mph 95 % 0 in
10:35 53.4 °F 52.2 °F 30.1 in West 11 mph 12.5 mph 95 % 0 in
10:40 53.4 °F 52.2 °F 30.1 in WSW 7.6 mph 12.5 mph 95 % 0 in
10:45 53.8 °F 52.3 °F 30.1 in WSW 8.5 mph 12.5 mph 95 % 0 in
10:50 54 °F 52.7 °F 30.1 in WSW 7.6 mph 13 mph 95 % 0 in
10:55 54 °F 52.7 °F 30.1 in WSW 9.8 mph 13.4 mph 95 % 0 in
11:00 54.7 °F 53.2 °F 30.1 in WSW 10.5 mph 13.4 mph 95 % 0 in
11:05 54.9 °F 53.4 °F 30.1 in West 9.6 mph 13.2 mph 95 % 0 in
11:10 54.9 °F 53.4 °F 30.1 in West 13 mph 13 mph 95 % 0 in
11:15 54.9 °F 53.4 °F 30.1 in WSW 11 mph 15.2 mph 95 % 0 in
11:20 54.9 °F 53.4 °F 30.1 in WSW 10.7 mph 15.2 mph 95 % 0 in
11:25 54.9 °F 53.4 °F 30.1 in West 10.5 mph 12.8 mph 95 % 0 in
11:30 55 °F 53.8 °F 30.1 in West 12.1 mph 14.3 mph 95 % 0 in
11:35 55 °F 53.4 °F 30.1 in West 12.8 mph 14.3 mph 94 % 0 in
11:40 55 °F 53.4 °F 30.1 in West 9.8 mph 13.4 mph 94 % 0 in
11:45 55 °F 53.4 °F 30.1 in WSW 8.1 mph 13.4 mph 94 % 0 in
11:50 55 °F 53.4 °F 30.1 in WSW 7.6 mph 12.1 mph 94 % 0 in
11:55 55 °F 53.4 °F 30.1 in NNW 8.1 mph 11.2 mph 94 % 0 in
12:00 55 °F 53.4 °F 30.1 in West 2.9 mph 12.3 mph 94 % 0 in
12:05 55.2 °F 53.6 °F 30.1 in West 2.9 mph 12.3 mph 94 % 0 in
12:10 55.2 °F 53.2 °F 30.1 in WSW 7.8 mph 13 mph 93 % 0 in
12:15 55.2 °F 53.2 °F 30.1 in West 12.8 mph 14.1 mph 93 % 0 in
12:20 55.6 °F 53.2 °F 30.1 in NNW 5.8 mph 15.9 mph 92 % 0 in
12:25 55.6 °F 53.6 °F 30.1 in NNW 5.6 mph 15.9 mph 93 % 0 in
12:30 55.8 °F 53.8 °F 30.1 in WSW 3.8 mph 9.8 mph 93 % 0 in
12:35 55.6 °F 53.2 °F 30.1 in South 11.2 mph 13 mph 92 % 0 in
12:40 55.8 °F 53.4 °F 30.1 in Calm   13 mph 92 % 0 in
12:45 55.9 °F 53.8 °F 30.1 in West 5.6 mph 10.5 mph 92 % 0 in
12:50 56.1 °F 54 °F 30.1 in West 12.3 mph 12.8 mph 92 % 0 in
12:55 56.3 °F 54 °F 30.1 in West 7.6 mph 14.3 mph 92 % 0 in
13:00 56.5 °F 54 °F 30.1 in WSW 8.7 mph 14.3 mph 91 % 0 in
13:05 56.8 °F 54 °F 30.1 in West 9.6 mph 15.2 mph 90 % 0 in
13:10 56.8 °F 53.1 °F 30.1 in West 10.1 mph 15.2 mph 87 % 0 in
13:15 57.2 °F 53.4 °F 30.1 in West 7.8 mph 15.2 mph 87 % 0 in
13:20 57.2 °F 53.1 °F 30.1 in West 17.4 mph 17.4 mph 86 % 0 in
13:25 57.4 °F 52.9 °F 30.1 in West 10.7 mph 17.4 mph 85 % 0 in
13:30 58.1 °F 53.1 °F 30.1 in WSW 10.3 mph 14.8 mph 83 % 0 in
13:35 58.6 °F 52.2 °F 30.1 in West 11 mph 15.7 mph 79 % 0 in
13:40 59.2 °F 52.3 °F 30.1 in WNW 9.2 mph 15.7 mph 78 % 0 in
13:45 59.2 °F 51.6 °F 30.1 in WNW 8.5 mph 15.2 mph 76 % 0 in
13:50 59 °F 51.8 °F 30.1 in WSW 10.1 mph 13.6 mph 77 % 0 in
13:55 59 °F 52.2 °F 30.1 in West 6.7 mph 13 mph 78 % 0 in
14:00 59.2 °F 52 °F 30.1 in SSW 12.8 mph 13.2 mph 77 % 0 in
14:05 59.2 °F 52 °F 30.1 in West 7.4 mph 15.7 mph 77 % 0 in
14:10 59 °F 51.8 °F 30.1 in West 4.3 mph 15.7 mph 77 % 0 in
14:15 59.2 °F 51.3 °F 30.1 in SW 10.7 mph 13 mph 75 % 0 in
14:20 59.7 °F 51.4 °F 30.1 in West 9.6 mph 15.7 mph 74 % 0 in
14:25 59.7 °F 51.8 °F 30.1 in WNW 4.3 mph 17 mph 75 % 0 in
14:30 59.4 °F 51.4 °F 30.1 in NNW 3.4 mph 17 mph 75 % 0 in
14:35 59 °F 50.7 °F 30.1 in WNW 8.9 mph 10.5 mph 74 % 0 in
14:40 59.2 °F 51.6 °F 30.1 in West 4 mph 9.6 mph 76 % 0 in
14:45 59.2 °F 50.5 °F 30.1 in West 6 mph 14.5 mph 73 % 0 in
14:50 59.7 °F 51.4 °F 30.1 in West 5.6 mph 14.5 mph 74 % 0 in
14:55 59.4 °F 51.1 °F 30.1 in NNW 7.6 mph 11 mph 74 % 0 in
15:00 60.4 °F 52.2 °F 30.1 in West 1.6 mph 11 mph 74 % 0 in
15:05 60.6 °F 52.2 °F 30.1 in West 8.1 mph 10.3 mph 74 % 0 in
15:10 61 °F 51.8 °F 30.2 in WNW 10.1 mph 10.7 mph 72 % 0 in
15:15 61.5 °F 52.2 °F 30.2 in West 8.5 mph 12.3 mph 71 % 0 in
15:20 61.5 °F 51.3 °F 30.2 in WNW 3.1 mph 12.3 mph 69 % 0 in
15:25 61.2 °F 50.9 °F 30.2 in West 4.9 mph 12.3 mph 69 % 0 in
15:30 61.9 °F 51.4 °F 30.2 in West 13.2 mph 15.4 mph 69 % 0 in
15:35 60.8 °F 50.5 °F 30.2 in West 7.6 mph 15.4 mph 69 % 0 in
15:40 61.2 °F 50.9 °F 30.2 in West 6.5 mph 14.1 mph 69 % 0 in
15:45 60.4 °F 50.2 °F 30.2 in West 5.8 mph 12.5 mph 69 % 0 in
15:50 61 °F 50.7 °F 30.2 in WNW 2.9 mph 12.5 mph 69 % 0 in
15:55 61 °F 51.1 °F 30.2 in West 9.8 mph 13.2 mph 70 % 0 in
16:00 61.2 °F 51.3 °F 30.2 in West 5.8 mph 13.2 mph 70 % 0 in
16:05 61.9 °F 52 °F 30.2 in West 6.5 mph 12.5 mph 70 % 0 in
16:10 61.5 °F 51.4 °F 30.2 in WNW 6 mph 12.5 mph 69 % 0 in
16:15 61.5 °F 51.4 °F 30.2 in WNW 4.9 mph 12.5 mph 69 % 0 in
16:20 60.8 °F 50.5 °F 30.2 in West 6.5 mph 13 mph 69 % 0 in
16:25 60.4 °F 50.5 °F 30.2 in West 10.7 mph 13 mph 70 % 0 in
16:30 60.4 °F 51.1 °F 30.2 in WSW 10.3 mph 12.3 mph 71 % 0 in
16:35 60.6 °F 52 °F 30.2 in WSW 10.7 mph 12.3 mph 73 % 0 in
16:40 60.4 °F 51.6 °F 30.2 in WSW 8.5 mph 13.2 mph 73 % 0 in
16:45 59.5 °F 51.3 °F 30.2 in West 10.7 mph 13.2 mph 74 % 0 in
16:50 58.6 °F 50.4 °F 30.2 in West 7.8 mph 11.9 mph 74 % 0 in
16:55 58.1 °F 50.5 °F 30.1 in West 7.4 mph 10.7 mph 76 % 0 in
16:56 57.9 °F 50.4 °F 30.1 in West 8.1 mph 10.7 mph 76 % 0 in
17:01 57.7 °F 50.5 °F 30.1 in SW 2.5 mph 10.7 mph 77 % 0 in
17:06 57.9 °F 51.1 °F 30.1 in West 6.5 mph 10.5 mph 78 % 0 in
17:11 57.7 °F 51.3 °F 30.2 in WNW 6 mph 13 mph 79 % 0 in
17:12 57.7 °F 51.3 °F 30.2 in NW 3.4 mph 13 mph 79 % 0 in
17:17 57.9 °F 51.8 °F 30.2 in West 2.9 mph 13 mph 80 % 0 in
17:22 58.3 °F 52.2 °F 30.2 in West 4 mph 8.7 mph 80 % 0 in
17:27 58.1 °F 51.6 °F 30.2 in WNW 4 mph 8.7 mph 79 % 0 in
17:32 57.6 °F 51.1 °F 30.2 in WNW 3.6 mph 7.8 mph 79 % 0 in
17:37 57.2 °F 50.7 °F 30.2 in West 3.1 mph 8.9 mph 79 % 0 in
17:42 56.7 °F 50.5 °F 30.1 in Calm   8.9 mph 80 % 0 in
17:47 56.7 °F 50.9 °F 30.1 in West 2.5 mph 4.3 mph 81 % 0 in
17:52 56.7 °F 50.9 °F 30.1 in Calm   4.3 mph 81 % 0 in
17:57 56.5 °F 51.1 °F 30.2 in Calm   4 mph 82 % 0 in
18:02 56.5 °F 51.1 °F 30.2 in Calm   5.4 mph 82 % 0 in
18:07 56.1 °F 51.1 °F 30.2 in Calm   5.6 mph 83 % 0 in
18:12 55.8 °F 50.7 °F 30.2 in West 3.4 mph 5.6 mph 83 % 0 in
18:17 55.6 °F 50.4 °F 30.2 in Calm   4.9 mph 83 % 0 in
18:20 55 °F 50 °F 30.2 in West 3.1 mph 4.7 mph 83 % 0 in
18:25 54.9 °F 50 °F 30.2 in Calm   4.9 mph 84 % 0 in
18:30 54.3 °F 49.6 °F 30.2 in Calm   4.9 mph 84 % 0 in
18:35 54.1 °F 49.8 °F 30.2 in West 3.4 mph 3.8 mph 85 % 0 in
18:40 54 °F 49.6 °F 30.2 in West 2.7 mph 3.8 mph 85 % 0 in
18:45 54 °F 49.8 °F 30.2 in West 3.4 mph 4 mph 86 % 0 in
18:50 53.8 °F 49.6 °F 30.2 in West 3.4 mph 4.7 mph 86 % 0 in
18:55 53.4 °F 49.6 °F 30.2 in West 2.5 mph 5.6 mph 87 % 0 in
19:01 53.4 °F 50.2 °F 30.2 in West 2.7 mph 5.6 mph 88 % 0 in
19:06 53.4 °F 50.2 °F 30.2 in West 6 mph 6 mph 88 % 0 in
19:11 53.4 °F 50.4 °F 30.2 in WNW 3.4 mph 6 mph 89 % 0 in
19:16 53.2 °F 50.2 °F 30.2 in Calm   5.8 mph 89 % 0 in
19:21 53.2 °F 50 °F 30.2 in Calm   4.7 mph 89 % 0 in
19:26 53.1 °F 50.2 °F 30.2 in West 1.6 mph 2.9 mph 90 % 0 in
19:31 52.9 °F 50 °F 30.2 in Calm   3.4 mph 90 % 0 in
19:33 52.9 °F 50 °F 30.2 in Calm   3.4 mph 90 % 0 in
19:34 52.5 °F 49.8 °F 30.2 in Calm   3.4 mph 90 % 0 in
19:38 52.5 °F 49.6 °F 30.2 in WNW 2 mph 2.9 mph 90 % 0 in
19:42 52.2 °F 49.3 °F 30.2 in Calm   2.9 mph 90 % 0 in
19:43 52.2 °F 48.9 °F 30.2 in Calm   2.9 mph 89 % 0 in
19:44 52.2 °F 48.9 °F 30.2 in Calm   2.7 mph 89 % 0 in
19:49 51.8 °F 48.6 °F 30.2 in WNW 2.2 mph 2.7 mph 89 % 0 in
19:50 51.8 °F 48.6 °F 30.2 in Calm   2.7 mph 89 % 0 in
19:55 51.4 °F 48 °F 30.2 in SW 0.9 mph 2.2 mph 88 % 0 in
20:00 51.1 °F 47.3 °F 30.2 in Calm   2 mph 87 % 0 in
20:05 50.9 °F 46.8 °F 30.2 in West 2 mph 3.8 mph 86 % 0 in
20:10 50.7 °F 47.3 °F 30.2 in Calm   3.8 mph 88 % 0 in
20:15 50.7 °F 47.3 °F 30.2 in West 3.1 mph 4 mph 88 % 0 in
20:20 50.2 °F 46.8 °F 30.2 in Calm   4 mph 88 % 0 in
20:25 50 °F 46.6 °F 30.2 in Calm   4 mph 88 % 0 in
20:30 49.8 °F 46.8 °F 30.2 in Calm   3.4 mph 89 % 0 in
20:35 49.3 °F 46.2 °F 30.2 in Calm     89 % 0 in
20:40 49.1 °F 46.2 °F 30.2 in Calm   1.6 mph 90 % 0 in
20:45 48.7 °F 46 °F 30.2 in NW 2 mph 4 mph 90 % 0 in
20:50 48.9 °F 45.5 °F 30.2 in North 2 mph 4.3 mph 88 % 0 in
20:55 48.9 °F 45.1 °F 30.3 in Calm   4.3 mph 87 % 0 in
21:00 49.1 °F 45.1 °F 30.3 in North 4.3 mph 4.7 mph 86 % 0 in
21:05 49.1 °F 44.8 °F 30.3 in NNE 3.6 mph 8.1 mph 85 % 0 in
21:10 49.1 °F 44.8 °F 30.3 in NNE 4.3 mph 8.5 mph 85 % 0 in
21:15 48.9 °F 44.2 °F 30.3 in NE 6 mph 8.7 mph 84 % 0 in
21:20 48.6 °F 43.7 °F 30.3 in NNE 6.3 mph 8.7 mph 83 % 0 in
21:25 48.4 °F 43.5 °F 30.2 in NNE 3.6 mph 7.8 mph 83 % 0 in
21:30 48 °F 43.2 °F 30.2 in NE 2.9 mph 7.6 mph 83 % 0 in
21:35 47.5 °F 42.6 °F 30.2 in NE 4.3 mph 7.6 mph 83 % 0 in
21:40 47.1 °F 42.3 °F 30.3 in NE 2.9 mph 5.6 mph 83 % 0 in
21:45 46.9 °F 42.1 °F 30.3 in NE 2 mph 4.7 mph 83 % 0 in
21:50 46.6 °F 41.7 °F 30.3 in Calm   4 mph 83 % 0 in
21:55 46.2 °F 41.4 °F 30.3 in NE 4.3 mph 4.3 mph 83 % 0 in
22:00 46 °F 41.2 °F 30.3 in NNE 3.4 mph 4.7 mph 83 % 0 in
22:05 45.9 °F 41.4 °F 30.3 in NNE 3.8 mph 4.7 mph 84 % 0 in
22:10 45.9 °F 41.2 °F 30.3 in Calm   3.8 mph 84 % 0 in
22:15 45.7 °F 41 °F 30.3 in Calm   3.1 mph 84 % 0 in
22:20 45.1 °F 40.6 °F 30.3 in Calm   3.1 mph 84 % 0 in
22:25 45.1 °F 40.5 °F 30.3 in Calm   3.1 mph 84 % 0 in
22:30 44.4 °F 39.9 °F 30.3 in NNE 1.3 mph 2.7 mph 84 % 0 in
22:35 44.2 °F 39.6 °F 30.3 in Calm   2.7 mph 84 % 0 in
22:40 43.9 °F 39.6 °F 30.3 in NNE 3.1 mph 3.1 mph 85 % 0 in
22:45 43.5 °F 39.4 °F 30.3 in NNE 1.3 mph 4.3 mph 85 % 0 in
22:50 43.5 °F 39.7 °F 30.3 in NE 3.1 mph 4.3 mph 86 % 0 in
22:55 43.5 °F 39.7 °F 30.3 in NE 3.8 mph 4.3 mph 86 % 0 in
23:00 43.9 °F 40.3 °F 30.3 in NNE 5.6 mph 6 mph 87 % 0 in
23:05 44.1 °F 40.5 °F 30.3 in NNE 2.7 mph 6.3 mph 87 % 0 in
23:10 43.9 °F 40.3 °F 30.3 in NNE 3.1 mph 6.3 mph 87 % 0 in
23:15 43.5 °F 39.7 °F 30.3 in NNE 4.3 mph 5.6 mph 86 % 0 in
23:20 43.5 °F 39.6 °F 30.3 in North 1.3 mph 4.3 mph 86 % 0 in
23:25 43.3 °F 39.4 °F 30.3 in NNE 2.9 mph 4.3 mph 86 % 0 in
23:30 43 °F 39 °F 30.3 in NNE 3.4 mph 4.3 mph 86 % 0 in
23:36 43 °F 39.4 °F 30.3 in NE 3.4 mph 4.3 mph 87 % 0 in
23:41 43 °F 39.4 °F 30.3 in NE 3.4 mph 4.7 mph 87 % 0 in
23:46 42.8 °F 39.2 °F 30.3 in NE 4.5 mph 6.5 mph 87 % 0 in
23:51 42.8 °F 39.2 °F 30.3 in NE 3.4 mph 6.5 mph 87 % 0 in
23:56 42.6 °F 39 °F 30.3 in NE 2.9 mph 4.3 mph 87 % 0 in
Le Gheer Warneton
Courtoisie de Weather Underground - 2.25 mb

Mise a jour : 17-12-17 07:11:12
Généré par Cumulus 1.9.4 (1099)